Showing default

GEESAT 4-07, 65125

Orbit data source: Space-Track

GEESAT 4-07, 65125 is a payload satellite owned by GeeSpace (CN) in LEO that was launched on Fri, 08 Aug 2025 UTC via a JIELONG-3 launch vehicle from the Yellow Sea Launch Area, China (YSLA). Payload-class satellites include a variety of spacecraft equipped with specific instruments for various scientific and technological missions. These include communications satellites like Starlink; space stations such as the ISS; scientific satellites like the Hubble; Earth observation satellites from companies like Planet Labs, Umbra, and HawkEye 360; GPS; miniature CubeSats for education and research; and military/defense satellites.

Loading next visibility...
Identifier
65125, 2025-170G
Orbit
LEO
Country
Flag of CNCN / PRC
Related business
Manufacturer
GWCG
Mission
Operational Commercial Navigation
Bus & Motor
GPS100, Unknown motor
Mass
130 kg wet, 130 kg dry
Launch date (UTC)
2025-08-08 (6 months ago)
Launch vehicle
JIELONG-3
Launch site
Yellow Sea Launch Area, China (YSLA)
Object type
Payload
Rocket body
Debris
Shape & HBR
Box + 2 Pan, 1.0 m
Radar Cross Section
0.833 m², Medium (>0.1 m² and < 1m²)

Expand to show TLE details & history
Last TLE update: 15 hours ago

TLE from 15 hours ago
0 GEESAT 4-07
1 65125U 25170G   26034.65010431  .00002979  00000-0  38230-3 0  9995
2 65125  49.9917  73.2837 0019173 265.4546  94.4202 14.83763545 26604
Epoch: 2026-02-03T15:36Z
TLE epoch observation values (Epoch: 2026-02-03T15:36:09.012Z)
Latitude
-0.00002°
Longitude
65.41814°
Altitude
619.072 km
Speed
7.55 km/s
True Right ascension
04h 53m 08s
True Declination
0° 00' 00"
Sunlit
Object was in full shadow at epoch
Visualization orbit readout
Latitude
Unknown
Longitude
Unknown
Altitude
Unknown
Speed
Unknown
Apparent Right ascension
Unknown
Apparent Declination
Unknown
Sunlit
N/A
Visualization observer readout
Local Sidereal Time
08:37:03
Azimuth
Unknown
Elevation
Unknown
Doppler factor
Unknown
Orbital elements
Apogee altitude
631.643 km
Perigee altitude
604.815 km
Semi-major axis
6,996.366 km
Eccentricity
0.00192
Inclination
49.9917°
RAAN
73.2837°
Arg. of periapsis
265.4546°
True anomaly
94.63921°
Mean anomaly
94.4202°
Eccentric anomaly
94.52971°
Mean motion
3.70881 °/min
Orbital period
97.07 mins
BSTAR
0.0003823
Loading maneuver chart data...
Computing Atmospheric mass density...
Loading historical data...
Loading historical data...
Loading historical data...
Loading historical data...
Loading historical data...
Loading historical data...
Loading historical data...

Documentation

Showing up to 5 results
|